Location: Unspecified
(0.0000°N, 0.0000°E)
Time: 17:47:22
(UTC+00:00)

SRMSAT - Pass Details

Date: 21 July 2019
Orbit: 848 x 865 km, 20.0° (Epoch: 07 December)

Event Time Altitude Azimuth Distance (km) Brightness Sun altitude
Exits shadow 03:08:05 22° 61° (ENE) 1,763 ? -41.1°
Drops below altitude 10° 03:10:36 10° 80° (E) 2,458 ? -40.5°
Sets 03:13:26 0° 90° (E) 3,394 ? -39.9°
